Regional Weather Roundup
Issued by NWS Midland/Odessa, TX

Current Version | Previous Version | Text Only | Print | Product List | Glossary On
Versions: 1 2 3 4 5 6 7 8 9 10 11 12 13 14 15 16 17 18 19 20 21 22 23 24 25 26 27 28 29 30 31 32 33 34 35 36 37 38 39 40 41 42 43 44 45 46 47 48 49 50
000
ASUS44 KMAF 201310
RWRMAF
MIDLAND AREA WEATHER ROUNDUP
NATIONAL WEATHER SERVICE MIDLAND TX
800 AM CDT SAT OCT 20 2018

...IN SOUTHWEST TEXAS AND SOUTHEAST NEW MEXICO...

CITY           SKY/WX    TMP DP  RH WIND       PRES   REMARKS
ALPINE         CLOUDY    54  54  99 NE5       30.38S
ANDREWS        FAIR      55  48  79 N6        30.32R
ARTESIA        CLOUDY    55  48  76 N10       30.36R
BIG SPRING     MOCLDY    57  51  80 NE9       30.30R
CARLSBAD       CLOUDY    58  49  72 NW12      30.32R
DRYDEN         NOT AVBL
FORT STOCKTON  CLOUDY    58  54  86 W7        30.28R
GUAD PASS      NOT AVBL
HOBBS          MOCLDY    54  45  71 N12       30.33R
LAMESA         NOT AVBL
MARFA            N/A     55  52  89 N18G24    30.33R
MIDLAND AIRPK    N/A     59  54  85 N6        30.29R
MIDLAND INTL   CLOUDY    59  53  80 NE9       30.28R
ODESSA         CLOUDY    58  51  78 NE8       30.29R
PECOS          CLOUDY    61  52  71 N10       30.28R
PRESIDIO       HVY RAIN  61  60  97 CALM      30.25S
SEMINOLE       CLOUDY    55  45  70 N10       30.36R
SNYDER         CLOUDY    57  50  78 N9        30.28R
WINK           CLOUDY    59  56  89 N8        30.27R
$$
...OTHER STATIONS IN TEXAS...

CITY           SKY/WX    TMP DP  RH WIND       PRES   REMARKS
ABILENE        FOG       55  55 100 NW6       30.25R VSB 1/4
AMARILLO       CLEAR     43  37  79 NW7       30.39R WCI  39
AUSTIN         CLOUDY    64  60  87 N8        30.16R
BROWNSVILLE    CLOUDY    70  69  97 NW12      30.06R
CORPUS CHRISTI DRIZZLE   66  65  96 N10       30.08R
DALLAS FTW     PTCLDY    57  55  93 N7        30.18S
DEL RIO        CLOUDY    61  61 100 NW9       30.18R
EL PASO        MOCLDY    62  52  69 NE3       30.29R
HOUSTON INT    CLOUDY    67  67 100 N9        30.09R
LUBBOCK        CLOUDY    50  43  77 N10       30.32S
SAN ANGELO     CLOUDY    58  56  93 CALM      30.24R
SAN ANTONIO    CLOUDY    64  60  87 N5        30.15R
WACO           CLOUDY    61  59  93 N7        30.18R
WICHITA FALLS  CLEAR     42  39  89 N6        30.30R WCI  38
$$
...OTHER LOCATIONS IN NEW MEXICO...

CITY           SKY/WX    TMP DP  RH WIND       PRES   REMARKS
ALAMOGORDO     CLEAR     50  50 100 CALM      30.32R
ALBUQUERQUE    MOCLDY    55  30  38 E17       30.41R
CANNON AFB     CLEAR     42  36  78 N13       30.40R WCI  35
CLOVIS         CLEAR     42  37  82 N9        30.40R WCI  37
HOLLOMAN AFB   CLOUDY    53  51  94 E5        30.33R
ROSWELL        MOCLDY    55  44  66 N9        30.37R
RUIDOSO        CLOUDY    46  36  66 S7        30.49S
SANTA FE       CLEAR     39  29  67 N7        30.47R WCI  34
TRUTH OR CONSE CLOUDY    59  38  45 N12       30.34R
TUCUMCARI      CLEAR     41  35  79 N9        30.40S WCI  35
$$



USA.gov is the U.S. government's official web portal to all federal, state and local government web resources and services.